Time,TemperatureF,DewpointF,PressureIn,WindDirection,WindDirectionDegrees,WindSpeedMPH,WindSpeedGustMPH,Humidity,HourlyPrecipIn,Conditions,Clouds,dailyrainin,SoftwareType,DateUTC
2013-04-17 00:03:00,33.0,27.0,30.36,North,350,3.0,-999.0,77,-99.99,,,-99.99,,2013-04-17 04:03:00,
2013-04-17 00:13:00,33.0,27.0,30.36,North,350,3.0,-999.0,77,-99.99,,,-99.99,,2013-04-17 04:13:00,
2013-04-17 00:22:00,33.0,27.0,30.36,NNW,346,3.0,-999.0,78,-99.99,,,-99.99,,2013-04-17 04:22:00,
2013-04-17 00:33:00,32.0,27.0,30.36,NNE,28,4.0,-999.0,80,-99.99,,,-99.99,,2013-04-17 04:33:00,
2013-04-17 00:42:00,32.0,27.0,30.36,NNE,28,4.0,-999.0,80,-99.99,,,-99.99,,2013-04-17 04:42:00,
2013-04-17 00:52:00,32.0,28.0,30.37,NNE,25,4.0,-999.0,85,-99.99,,,-99.99,,2013-04-17 04:52:00,
2013-04-17 01:02:00,32.0,29.0,30.38,NNE,13,3.0,-999.0,87,-99.99,,,-99.99,,2013-04-17 05:02:00,
2013-04-17 01:12:00,32.0,29.0,30.38,NNE,13,3.0,-999.0,87,-99.99,,,-99.99,,2013-04-17 05:12:00,
2013-04-17 01:22:00,31.0,28.0,30.38,NNE,24,4.0,-999.0,87,-99.99,,,-99.99,,2013-04-17 05:22:00,
2013-04-17 01:32:00,31.0,27.0,30.39,NNE,32,4.0,-999.0,86,-99.99,,,-99.99,,2013-04-17 05:32:00,
2013-04-17 01:42:00,31.0,27.0,30.39,NNE,32,4.0,-999.0,86,-99.99,,,-99.99,,2013-04-17 05:42:00,
2013-04-17 01:52:00,30.0,27.0,30.40,North,360,2.0,-999.0,87,-99.99,,,-99.99,,2013-04-17 05:52:00,
2013-04-17 02:02:00,30.0,27.0,30.40,NNE,21,3.0,-999.0,87,-99.99,,,-99.99,,2013-04-17 06:02:00,
2013-04-17 02:12:00,30.0,27.0,30.40,NNE,21,3.0,-999.0,87,-99.99,,,-99.99,,2013-04-17 06:12:00,
2013-04-17 02:22:00,31.0,28.0,30.40,NNE,26,3.0,-999.0,87,-99.99,,,-99.99,,2013-04-17 06:22:00,
2013-04-17 02:32:00,31.0,28.0,30.41,NNW,342,1.0,-999.0,87,-99.99,,,-99.99,,2013-04-17 06:32:00,
2013-04-17 02:42:00,31.0,28.0,30.41,NNW,342,1.0,-999.0,87,-99.99,,,-99.99,,2013-04-17 06:42:00,
2013-04-17 02:52:00,31.0,28.0,30.41,NNE,16,2.0,-999.0,87,-99.99,,,-99.99,,2013-04-17 06:52:00,
2013-04-17 03:02:00,31.0,28.0,30.41,NNW,348,2.0,-999.0,88,-99.99,,,-99.99,,2013-04-17 07:02:00,
2013-04-17 03:12:00,31.0,28.0,30.41,NNW,348,2.0,-999.0,88,-99.99,,,-99.99,,2013-04-17 07:12:00,
2013-04-17 03:22:00,31.0,28.0,30.40,North,5,2.0,-999.0,87,-99.99,,,-99.99,,2013-04-17 07:22:00,
2013-04-17 03:32:00,31.0,28.0,30.40,NNE,29,2.0,-999.0,88,-99.99,,,-99.99,,2013-04-17 07:32:00,
2013-04-17 03:42:00,31.0,28.0,30.40,NNE,29,2.0,-999.0,88,-99.99,,,-99.99,,2013-04-17 07:42:00,
2013-04-17 03:52:00,30.0,27.0,30.40,NNE,29,0.0,-999.0,88,-99.99,,,-99.99,,2013-04-17 07:52:00,
2013-04-17 04:02:00,30.0,27.0,30.41,NNE,31,3.0,-999.0,89,-99.99,,,-99.99,,2013-04-17 08:02:00,
2013-04-17 04:12:00,30.0,27.0,30.41,NNE,31,3.0,-999.0,89,-99.99,,,-99.99,,2013-04-17 08:12:00,
2013-04-17 04:22:00,30.0,27.0,30.41,North,355,3.0,-999.0,90,-99.99,,,-99.99,,2013-04-17 08:22:00,
2013-04-17 04:32:00,30.0,27.0,30.41,ENE,60,3.0,-999.0,90,-99.99,,,-99.99,,2013-04-17 08:32:00,
2013-04-17 04:42:00,30.0,27.0,30.41,ENE,60,3.0,-999.0,90,-99.99,,,-99.99,,2013-04-17 08:42:00,
2013-04-17 04:52:00,31.0,28.0,30.41,NNE,26,2.0,-999.0,90,-99.99,,,-99.99,,2013-04-17 08:52:00,
2013-04-17 05:02:00,31.0,28.0,30.41,NE,51,4.0,-999.0,90,-99.99,,,-99.99,,2013-04-17 09:02:00,
2013-04-17 05:12:00,31.0,28.0,30.41,NE,51,4.0,-999.0,90,-99.99,,,-99.99,,2013-04-17 09:12:00,
2013-04-17 05:22:00,31.0,28.0,30.41,NNE,28,4.0,-999.0,90,-99.99,,,-99.99,,2013-04-17 09:22:00,
2013-04-17 05:33:00,31.0,28.0,30.42,NNE,22,3.0,-999.0,90,-99.99,,,-99.99,,2013-04-17 09:33:00,
2013-04-17 05:42:00,31.0,28.0,30.42,NNE,22,3.0,-999.0,90,-99.99,,,-99.99,,2013-04-17 09:42:00,
2013-04-17 05:52:00,31.0,29.0,30.42,ENE,61,5.0,-999.0,91,-99.99,,,-99.99,,2013-04-17 09:52:00,
2013-04-17 06:02:00,31.0,29.0,30.41,NE,55,3.0,-999.0,91,-99.99,,,-99.99,,2013-04-17 10:02:00,
2013-04-17 06:12:00,31.0,29.0,30.41,NE,55,3.0,-999.0,91,-99.99,,,-99.99,,2013-04-17 10:12:00,
2013-04-17 06:23:00,31.0,28.0,30.42,NNE,12,4.0,-999.0,90,-99.99,,,-99.99,,2013-04-17 10:23:00,
2013-04-17 06:32:00,31.0,28.0,30.43,NE,48,2.0,-999.0,90,-99.99,,,-99.99,,2013-04-17 10:32:00,
2013-04-17 06:42:00,31.0,28.0,30.43,NE,48,2.0,-999.0,90,-99.99,,,-99.99,,2013-04-17 10:42:00,
2013-04-17 06:53:00,31.0,28.0,30.43,NE,45,1.0,-999.0,90,-99.99,,,-99.99,,2013-04-17 10:53:00,
2013-04-17 07:02:00,31.0,28.0,30.43,East,86,3.0,-999.0,90,-99.99,,,-99.99,,2013-04-17 11:02:00,
2013-04-17 07:12:00,31.0,28.0,30.43,East,86,3.0,-999.0,90,-99.99,,,-99.99,,2013-04-17 11:12:00,
2013-04-17 07:22:00,31.0,28.0,30.43,East,82,1.0,-999.0,89,-99.99,,,-99.99,,2013-04-17 11:22:00,
2013-04-17 07:32:00,32.0,29.0,30.43,NNE,27,2.0,-999.0,90,-99.99,,,-99.99,,2013-04-17 11:32:00,
2013-04-17 07:42:00,32.0,29.0,30.43,NNE,27,2.0,-999.0,90,-99.99,,,-99.99,,2013-04-17 11:42:00,
2013-04-17 07:52:00,32.0,29.0,30.42,ENE,69,2.0,-999.0,89,-99.99,,,-99.99,,2013-04-17 11:52:00,
2013-04-17 08:02:00,31.0,28.0,30.42,ENE,74,4.0,-999.0,89,-99.99,,,-99.99,,2013-04-17 12:02:00,
2013-04-17 08:12:00,31.0,28.0,30.42,ENE,74,4.0,-999.0,89,-99.99,,,-99.99,,2013-04-17 12:12:00,
2013-04-17 08:22:00,31.0,28.0,30.41,NE,51,4.0,-999.0,89,-99.99,,,-99.99,,2013-04-17 12:22:00,
2013-04-17 08:32:00,31.0,28.0,30.41,ENE,57,4.0,-999.0,89,-99.99,,,-99.99,,2013-04-17 12:32:00,
2013-04-17 08:42:00,31.0,28.0,30.41,ENE,57,4.0,-999.0,89,-99.99,,,-99.99,,2013-04-17 12:42:00,
2013-04-17 08:52:00,31.0,28.0,30.41,ENE,76,4.0,-999.0,89,-99.99,,,-99.99,,2013-04-17 12:52:00,
2013-04-17 09:02:00,31.0,28.0,30.40,ENE,66,4.0,-999.0,89,-99.99,,,-99.99,,2013-04-17 13:02:00,
2013-04-17 09:12:00,31.0,28.0,30.40,ENE,66,4.0,-999.0,89,-99.99,,,-99.99,,2013-04-17 13:12:00,
2013-04-17 09:22:00,31.0,28.0,30.41,SE,128,4.0,-999.0,90,-99.99,,,-99.99,,2013-04-17 13:22:00,
2013-04-17 09:32:00,31.0,28.0,30.43,ESE,119,2.0,-999.0,90,-99.99,,,-99.99,,2013-04-17 13:32:00,
2013-04-17 09:42:00,31.0,28.0,30.43,ESE,119,2.0,-999.0,90,-99.99,,,-99.99,,2013-04-17 13:42:00,
2013-04-17 09:52:00,32.0,29.0,30.45,ESE,118,0.0,-999.0,88,-99.99,,,-99.99,,2013-04-17 13:52:00,
2013-04-17 10:02:00,32.0,29.0,30.44,ENE,58,2.0,-999.0,88,-99.99,,,-99.99,,2013-04-17 14:02:00,
2013-04-17 10:12:00,32.0,29.0,30.44,ENE,58,2.0,-999.0,88,-99.99,,,-99.99,,2013-04-17 14:12:00,
2013-04-17 10:22:00,32.0,29.0,30.44,NE,49,3.0,-999.0,88,-99.99,,,-99.99,,2013-04-17 14:22:00,
2013-04-17 10:32:00,33.0,29.0,30.43,ENE,61,3.0,-999.0,86,-99.99,,,-99.99,,2013-04-17 14:32:00,
2013-04-17 10:42:00,33.0,29.0,30.43,ENE,61,3.0,-999.0,86,-99.99,,,-99.99,,2013-04-17 14:42:00,
2013-04-17 10:52:00,33.0,29.0,30.43,ENE,61,3.0,-999.0,86,-99.99,,,-99.99,,2013-04-17 14:52:00,
2013-04-17 11:02:00,34.0,30.0,30.42,NE,41,3.0,-999.0,84,-99.99,,,-99.99,,2013-04-17 15:02:00,
2013-04-17 11:12:00,35.0,30.0,30.41,NE,34,3.0,-999.0,83,-99.99,,,-99.99,,2013-04-17 15:12:00,
2013-04-17 11:22:00,35.0,30.0,30.41,NE,34,3.0,-999.0,83,-99.99,,,-99.99,,2013-04-17 15:22:00,
2013-04-17 11:33:00,35.0,30.0,30.40,NE,52,3.0,-999.0,81,-99.99,,,-99.99,,2013-04-17 15:33:00,
2013-04-17 11:42:00,35.0,30.0,30.40,NE,52,3.0,-999.0,81,-99.99,,,-99.99,,2013-04-17 15:42:00,
2013-04-17 11:53:00,36.0,30.0,30.40,NE,36,4.0,-999.0,80,-99.99,,,-99.99,,2013-04-17 15:53:00,
2013-04-17 12:03:00,36.0,30.0,30.36,NE,55,5.0,-999.0,80,-99.99,,,-99.99,,2013-04-17 16:03:00,
2013-04-17 12:12:00,36.0,30.0,30.36,NE,55,5.0,-999.0,80,-99.99,,,-99.99,,2013-04-17 16:12:00,
2013-04-17 12:22:00,36.0,30.0,30.36,ENE,61,5.0,-999.0,80,-99.99,,,-99.99,,2013-04-17 16:22:00,
2013-04-17 12:32:00,36.0,30.0,30.37,ENE,62,4.0,-999.0,80,-99.99,,,-99.99,,2013-04-17 16:32:00,
2013-04-17 12:42:00,36.0,30.0,30.37,ENE,62,4.0,-999.0,80,-99.99,,,-99.99,,2013-04-17 16:42:00,
2013-04-17 12:52:00,36.0,30.0,30.37,East,88,4.0,-999.0,79,-99.99,,,-99.99,,2013-04-17 16:52:00,
2013-04-17 13:02:00,37.0,30.0,30.36,ENE,59,4.0,-999.0,77,-99.99,,,-99.99,,2013-04-17 17:02:00,
2013-04-17 13:12:00,37.0,30.0,30.36,ENE,59,4.0,-999.0,77,-99.99,,,-99.99,,2013-04-17 17:12:00,
2013-04-17 13:22:00,37.0,30.0,30.36,ENE,59,4.0,-999.0,77,-99.99,,,-99.99,,2013-04-17 17:22:00,
2013-04-17 13:33:00,38.0,31.0,30.35,NE,39,4.0,-999.0,76,-99.99,,,-99.99,,2013-04-17 17:33:00,
2013-04-17 13:42:00,38.0,31.0,30.35,NE,39,4.0,-999.0,76,-99.99,,,-99.99,,2013-04-17 17:42:00,
2013-04-17 13:52:00,38.0,30.0,30.36,NE,46,3.0,-999.0,74,-99.99,,,-99.99,,2013-04-17 17:52:00,
2013-04-17 14:02:00,38.0,30.0,30.36,ENE,74,3.0,-999.0,74,-99.99,,,-99.99,,2013-04-17 18:02:00,
2013-04-17 14:12:00,38.0,30.0,30.36,ENE,74,3.0,-999.0,74,-99.99,,,-99.99,,2013-04-17 18:12:00,
2013-04-17 14:22:00,38.0,30.0,30.36,ENE,74,3.0,-999.0,74,-99.99,,,-99.99,,2013-04-17 18:22:00,
2013-04-17 14:32:00,39.0,31.0,30.32,NE,38,4.0,-999.0,73,-99.99,,,-99.99,,2013-04-17 18:32:00,
2013-04-17 14:42:00,39.0,31.0,30.32,NE,38,4.0,-999.0,73,-99.99,,,-99.99,,2013-04-17 18:42:00,
2013-04-17 14:52:00,40.0,32.0,30.32,NNE,27,4.0,-999.0,72,-99.99,,,-99.99,,2013-04-17 18:52:00,
2013-04-17 15:02:00,40.0,32.0,30.32,NNE,27,4.0,-999.0,72,-99.99,,,-99.99,,2013-04-17 19:02:00,
2013-04-17 15:12:00,40.0,32.0,30.32,NNE,27,4.0,-999.0,72,-99.99,,,-99.99,,2013-04-17 19:12:00,
2013-04-17 15:22:00,40.0,32.0,30.32,NNE,27,4.0,-999.0,72,-99.99,,,-99.99,,2013-04-17 19:22:00,
2013-04-17 15:32:00,40.0,32.0,30.31,NE,39,4.0,-999.0,72,-99.99,,,-99.99,,2013-04-17 19:32:00,
2013-04-17 15:42:00,40.0,32.0,30.31,ESE,115,3.0,-999.0,72,-99.99,,,-99.99,,2013-04-17 19:42:00,
2013-04-17 15:52:00,40.0,32.0,30.31,ESE,115,3.0,-999.0,72,-99.99,,,-99.99,,2013-04-17 19:52:00,
2013-04-17 16:02:00,40.0,32.0,30.31,ESE,115,3.0,-999.0,72,-99.99,,,-99.99,,2013-04-17 20:02:00,
2013-04-17 16:12:00,40.0,32.0,30.31,ESE,115,3.0,-999.0,72,-99.99,,,-99.99,,2013-04-17 20:12:00,
2013-04-17 16:22:00,38.0,31.0,30.30,East,82,4.0,-999.0,76,-99.99,,,-99.99,,2013-04-17 20:22:00,
2013-04-17 16:32:00,39.0,32.0,30.30,ENE,70,3.0,-999.0,76,-99.99,,,-99.99,,2013-04-17 20:32:00,
2013-04-17 16:42:00,39.0,32.0,30.30,ENE,70,3.0,-999.0,76,-99.99,,,-99.99,,2013-04-17 20:42:00,
2013-04-17 16:52:00,38.0,32.0,30.30,NE,44,3.0,-999.0,78,-99.99,,,-99.99,,2013-04-17 20:52:00,
2013-04-17 17:02:00,38.0,31.0,30.29,ESE,107,3.0,-999.0,77,-99.99,,,-99.99,,2013-04-17 21:02:00,
2013-04-17 17:12:00,38.0,31.0,30.29,ESE,107,3.0,-999.0,77,-99.99,,,-99.99,,2013-04-17 21:12:00,
2013-04-17 17:22:00,37.0,31.0,30.27,East,88,3.0,-999.0,79,-99.99,,,-99.99,,2013-04-17 21:22:00,
2013-04-17 17:32:00,36.0,31.0,30.27,ENE,62,4.0,-999.0,81,-99.99,,,-99.99,,2013-04-17 21:32:00,
2013-04-17 17:42:00,36.0,31.0,30.27,ENE,62,4.0,-999.0,81,-99.99,,,-99.99,,2013-04-17 21:42:00,
2013-04-17 17:53:00,36.0,31.0,30.26,NE,40,4.0,-999.0,83,-99.99,,,-99.99,,2013-04-17 21:53:00,
2013-04-17 18:02:00,35.0,31.0,30.24,NE,53,4.0,-999.0,84,-99.99,,,-99.99,,2013-04-17 22:02:00,
2013-04-17 18:12:00,35.0,31.0,30.24,NE,53,4.0,-999.0,84,-99.99,,,-99.99,,2013-04-17 22:12:00,
2013-04-17 18:22:00,35.0,31.0,30.24,East,100,4.0,-999.0,84,-99.99,,,-99.99,,2013-04-17 22:22:00,
2013-04-17 18:33:00,34.0,30.0,30.23,NE,46,4.0,-999.0,85,-99.99,,,-99.99,,2013-04-17 22:33:00,
2013-04-17 18:42:00,34.0,30.0,30.23,NE,43,5.0,-999.0,84,-99.99,,,-99.99,,2013-04-17 22:42:00,
2013-04-17 18:53:00,34.0,30.0,30.23,NE,43,5.0,-999.0,84,-99.99,,,-99.99,,2013-04-17 22:53:00,
2013-04-17 19:02:00,34.0,29.0,30.22,ENE,57,5.0,-999.0,83,-99.99,,,-99.99,,2013-04-17 23:02:00,
2013-04-17 19:12:00,34.0,29.0,30.22,NE,34,5.0,-999.0,82,-99.99,,,-99.99,,2013-04-17 23:12:00,
2013-04-17 19:22:00,34.0,29.0,30.22,NE,34,5.0,-999.0,82,-99.99,,,-99.99,,2013-04-17 23:22:00,
2013-04-17 19:32:00,34.0,29.0,30.22,ENE,71,5.0,-999.0,83,-99.99,,,-99.99,,2013-04-17 23:32:00,
2013-04-17 19:42:00,34.0,29.0,30.20,East,86,4.0,-999.0,83,-99.99,,,-99.99,,2013-04-17 23:42:00,
2013-04-17 19:52:00,34.0,29.0,30.20,East,86,4.0,-999.0,83,-99.99,,,-99.99,,2013-04-17 23:52:00,
2013-04-17 20:02:00,34.0,30.0,30.20,ESE,120,3.0,-999.0,84,-99.99,,,-99.99,,2013-04-18 00:02:00,
2013-04-17 20:12:00,34.0,30.0,30.19,NE,41,3.0,-999.0,85,-99.99,,,-99.99,,2013-04-18 00:12:00,
2013-04-17 20:22:00,34.0,30.0,30.19,NE,41,3.0,-999.0,85,-99.99,,,-99.99,,2013-04-18 00:22:00,
2013-04-17 20:32:00,34.0,30.0,30.19,NE,43,3.0,-999.0,85,-99.99,,,-99.99,,2013-04-18 00:32:00,
2013-04-17 20:42:00,34.0,30.0,30.18,ENE,64,3.0,-999.0,85,-99.99,,,-99.99,,2013-04-18 00:42:00,
2013-04-17 20:52:00,34.0,30.0,30.18,ENE,64,3.0,-999.0,85,-99.99,,,-99.99,,2013-04-18 00:52:00,
2013-04-17 21:02:00,34.0,30.0,30.18,NNE,29,2.0,-999.0,86,-99.99,,,-99.99,,2013-04-18 01:02:00,
2013-04-17 21:12:00,34.0,30.0,30.17,NE,51,2.0,-999.0,86,-99.99,,,-99.99,,2013-04-18 01:12:00,
2013-04-17 21:22:00,34.0,30.0,30.17,NE,51,2.0,-999.0,86,-99.99,,,-99.99,,2013-04-18 01:22:00,
2013-04-17 21:32:00,34.0,31.0,30.16,NE,43,3.0,-999.0,87,-99.99,,,-99.99,,2013-04-18 01:32:00,
2013-04-17 21:42:00,34.0,31.0,30.16,NE,43,3.0,-999.0,87,-99.99,,,-99.99,,2013-04-18 01:42:00,
2013-04-17 21:52:00,34.0,31.0,30.16,NE,43,3.0,-999.0,87,-99.99,,,-99.99,,2013-04-18 01:52:00,
2013-04-17 22:02:00,34.0,31.0,30.17,NE,38,2.0,-999.0,87,-99.99,,,-99.99,,2013-04-18 02:02:00,
2013-04-17 22:12:00,34.0,31.0,30.17,NE,46,1.0,-999.0,87,-99.99,,,-99.99,,2013-04-18 02:12:00,
2013-04-17 22:22:00,34.0,31.0,30.17,NE,46,1.0,-999.0,87,-99.99,,,-99.99,,2013-04-18 02:22:00,
2013-04-17 22:32:00,34.0,30.0,30.15,NE,38,2.0,-999.0,86,-99.99,,,-99.99,,2013-04-18 02:32:00,
2013-04-17 22:42:00,34.0,30.0,30.15,NE,38,2.0,-999.0,86,-99.99,,,-99.99,,2013-04-18 02:42:00,
2013-04-17 22:52:00,34.0,30.0,30.15,NE,38,2.0,-999.0,86,-99.99,,,-99.99,,2013-04-18 02:52:00,
2013-04-17 23:02:00,34.0,30.0,30.15,NE,39,2.0,-999.0,85,-99.99,,,-99.99,,2013-04-18 03:02:00,
2013-04-17 23:12:00,34.0,30.0,30.15,ENE,58,2.0,-999.0,85,-99.99,,,-99.99,,2013-04-18 03:12:00,
2013-04-17 23:22:00,34.0,30.0,30.15,ENE,58,2.0,-999.0,85,-99.99,,,-99.99,,2013-04-18 03:22:00,
2013-04-17 23:33:00,34.0,30.0,30.13,ENE,75,2.0,-999.0,85,-99.99,,,-99.99,,2013-04-18 03:33:00,
2013-04-17 23:43:00,34.0,30.0,30.11,NE,54,2.0,-999.0,86,-99.99,,,-99.99,,2013-04-18 03:43:00,
2013-04-17 23:53:00,34.0,30.0,30.11,NE,54,2.0,-999.0,86,-99.99,,,-99.99,,2013-04-18 03:53:00,